Regional Weather Roundup
Issued by NWS

Home | Current Version | Previous Version | Graphics & Text | Print | Product List | Glossary On
Versions: 1 2 3 4 5 6 7 8 9 10 11 12 13 14 15 16 17 18 19 20 21 22 23 24 25 26 27 28 29 30 31 32 33 34 35 36 37 38 39 40 41 42 43 44 45 46 47 48 49 50
000
ASUS45 KBOU 231307
RWRCO

WEATHER ROUNDUP FOR COLORADO
NATIONAL WEATHER SERVICE DENVER/BOULDER CO
700 AM MDT SAT MAY 23 2015

NOTE: "FAIR" INDICATES FEW OR NO CLOUDS BELOW 12000 FEET WITH NO
SIGNIFICANT WEATHER AND/OR OBSTRUCTIONS TO VISIBILITY.

COZ001>005-013-030-031-231400-
...NORTHWEST COLORADO...

CITY           SKY/WX    TMP DP  RH WIND       PRES   REMARKS
CRAIG          PTSUNNY   43  38  82 NE9       29.99F
HAYDEN         PTSUNNY   39  36  87 E9        30.02F
MEEKER         SUNNY     42  38  85 MISG      29.98F
MOUNT WERNER   NOT AVBL
STEAMBOAT SPGS PTSUNNY   35  34  95 CALM      30.03S
WALDEN         PTSUNNY   36  34  93 CALM      30.09R
$$

COZ006>008-011-231400-
...WEST CENTRAL VALLEYS...

CITY           SKY/WX    TMP DP  RH WIND       PRES   REMARKS
GRAND JUNCTION SUNNY     49  41  74 SE13      29.93R
MONTROSE       SUNNY     46  36  68 S7        30.00R
EAGLE          MOSUNNY   43  43 100 CALM      30.06S
RIFLE          SUNNY     46  41  82 CALM      29.97R
DELTA          SUNNY     48  42  77 MISG      29.98R
NUCLA          SUNNY     43  34  70 E5        30.03R
$$

COZ017>023-064>068-231400-
...SOUTHWEST COLORADO...

CITY           SKY/WX    TMP DP  RH WIND       PRES   REMARKS
DURANGO        SUNNY     39  35  86 NE5       30.04S
CORTEZ         MOSUNNY   36  34  92 CALM      30.02R
PAGOSA SPRINGS CLOUDY    42  39  91 NE5       30.08S
TELLURIDE      SUNNY     35  30  82 SE9       30.09R WCI  28
WOLF CREEK PAS NOT AVBL
$$

COZ009-010-012-014-032>034-037-058>063-231400-
...CENTRAL COLORADO...

CITY           SKY/WX    TMP DP  RH WIND       PRES   REMARKS
ASPEN          SUNNY     39  35  86 SE9       30.04F
BUENA VISTA    PTSUNNY   42  36  79 N5        30.09R
COPPER MTN     SNOW      32  28  86 SE6       30.19R VSB 1/2 WCI  26
BERTHOUD PASS  PTSUNNY   23  18  80 E5        30.23R WCI  17
COTTONWOOD PAS CLOUDY    39  34  81 E3        30.14R
GUNNISON       MOSUNNY   36  32  87 CALM      30.11R
KREMMLING      MOSUNNY   39  36  87 CALM      30.09S
LEADVILLE      CLOUDY    30  30 100 NE3       30.12S
MONARCH PASS   SUNNY     28  27  93 MISG      30.29R
SALIDA         CLOUDY    44  38  78 W3        30.15R
SUNLIGHT       PTSUNNY   32  32 100 E5          N/A  FOG     WCI  27
WILKERSON PASS SUNNY     32  30  93 CALM      30.21R
$$

COZ069>075-231400-
...SAN LUIS VALLEY/SANGRE DE CRISTO MOUNTAINS...

CITY           SKY/WX    TMP DP  RH WIND       PRES   REMARKS
ALAMOSA        MOSUNNY   41  37  86 SW3       30.06R
LA VETA PASS   PTSUNNY  N/A N/A N/A MISG      30.16R
SAGUACHE       MOSUNNY   41  34  75 NW8       30.08R
$$

COZ035-036-038>040-231400-
...NORTHERN COLORADO FRONT RANGE...

CITY           SKY/WX    TMP DP  RH WIND       PRES   REMARKS
DENVER INTL AP FOG       48  48 100 CALM      30.04R VSB 1
DMNS CITY PARK   N/A     49  48  98 N2        30.04R
AURORA         PTSUNNY   48  46  95 SE1       30.05R
FRONT RANGE AP DRZL/FOG  50  50 100 NE5       30.05  VSB 1/2
ERIE MUNI ARPT FOG       47  47  99 E7        30.04R VSB 1/4
BOULDER MUN AP CLOUDY    46  46 100 CALM      30.04R FOG
CENTENNIAL     CLOUDY    48  47  96 CALM      30.05R FOG
BROOMFIELD     NOT AVBL
FORT COLLINS   CLOUDY    48  46  93 E10       30.04R VSB<1/4
LONGMONT       CLOUDY    50  49  97 E7        30.06R FOG
$$

COZ041-046-047-076>085-087-088-231400-
...PIKES PEAK/PALMER DIVIDE AND SOUTHERN FOOTHILLS...

CITY           SKY/WX    TMP DP  RH WIND       PRES   REMARKS
COLO. SPRINGS  PTSUNNY   47  44  90 NW5       30.06R
A. F. ACADEMY  CLOUDY    46  46  99 NW8       30.05R
ELLICOTT       NOT AVBL
FALCON         PTSUNNY   46  45  97 NE7       30.07S
FORT CARSON    SUNNY     46  45  99 N10       30.03R
LIMON          FOG       49  49 100 CALM      30.03S VSB 3/4
MONUMENT HILL  NOT AVBL
TRINIDAD       PTSUNNY   49  46  90 CALM      30.02R
$$

COZ042>045-048>051-090-091-231400-
...NORTHEAST COLORADO...

CITY           SKY/WX    TMP DP  RH WIND       PRES   REMARKS
GREELEY ARPT   CLOUDY    48  45  87 CALM      30.05R
AKRON          FOG       51  51 100 SE10      30.01F VSB<1/4
BURLINGTON     FOG       54  53  97 SE14      30.03R VSB 1
WRAY           FOG      N/A N/A N/A SE13G18   30.02R VSB 1/2
STERLING       FOG       50  50 100 NE5       30.01S VSB 1
HOLYOKE        NOT AVBL
FORT MORGAN    CLOUDY    49  48  96 E3        30.04R FOG
$$

COZ086-089-092>099-231400-
...SOUTHEAST COLORADO...

CITY           SKY/WX    TMP DP  RH WIND       PRES   REMARKS
PUEBLO         CLOUDY    50  48  93 W6        30.01R
LA JUNTA       RAIN      54  51  90 SE15      29.99R FOG
LAMAR          CLOUDY    54  49  83 SE22G31   29.95F
SPRINGFIELD      N/A     51  48  89 SE12      30.01R
$$


USA.gov is the U.S. government's official web portal to all federal, state and local government web resources and services.